Miscellaneous Local Product
Issued by NWS Hastings, NE

Home | Current Version | Previous Version | Text Only | Print | Product List | Glossary Off
Versions: 1 2 3 4 5 6 7 8 9 10 11 12 13 14 15 16 17 18 19 20 21 22 23 24 25 26 27 28 29 30 31 32 33 34 35 36 37 38 39 40 41 42 43 44 45 46 47 48 49 50

000
AXUS43 KGID 182002
MISGRI

GID CWA HOURLY WEATHER ROUNDUP
NATIONAL WEATHER SERVICE HASTINGS NE
200 PM CST THU JAN 18 2018

NOTE: "FAIR" INDICATES FEW OR NO CLOUDS BELOW 12,000 FEET WITH NO
SIGNIFICANT WEATHER AND/OR OBSTRUCTIONS TO VISIBILITY.

...SOUTH CENTRAL NEBRASKA...

CITY           SKY/WX    TMP DP  RH WIND       PRES   REMARKS
GRAND ISLAND   CLOUDY    42  29  59 SW14      29.93F
KEARNEY        CLOUDY    45  29  53 SW6       29.94F
HASTINGS       CLOUDY    42  28  57 SW8       29.95F
ORD            CLOUDY    46  28  49 SW7       29.89F
YORK           CLOUDY    41  30  65 SW14      29.94F
AURORA         CLOUDY    43  31  61 SW13      29.93F
LEXINGTON      CLOUDY    45  31  58 CALM      29.93F
HOLDREGE       CLOUDY    47  28  46 SW12      29.94F
HEBRON         CLOUDY    38  25  58 SW7       30.00F WCI  33

...NEBRASKA PANHANDLE...

CITY           SKY/WX    TMP DP  RH WIND       PRES   REMARKS
CHADRON        CLOUDY    48  29  47 W6        29.89F
ALLIANCE       CLOUDY    42  32  67 W9        29.92F
SCOTTSBLUFF    CLOUDY    46  30  53 NE3       29.94F
SIDNEY         CLOUDY    60  19  20 W16       29.96F

...WESTERN AND NORTH CENTRAL NEBRASKA...

CITY           SKY/WX    TMP DP  RH WIND       PRES   REMARKS
VALENTINE      CLOUDY    46  30  53 W9        29.86F
AINSWORTH      CLOUDY    43  31  64 W5        29.87F
ONEILL         CLOUDY    41  29  63 SW6       29.86F
BROKEN BOW     CLOUDY    41  29  62 W7        29.90F
IMPERIAL       CLOUDY    53  26  35 W6        29.96F
NORTH PLATTE   CLOUDY    46  28  49 W10       29.94F
MCCOOK         CLOUDY    50  24  36 W9        29.96F

...EASTERN NEBRASKA...

CITY           SKY/WX    TMP DP  RH WIND       PRES   REMARKS
NORFOLK        CLOUDY    39  28  64 S12       29.85F WCI  32
SO SIOUX CITY  CLOUDY    43  26  51 S12       29.89F
TEKAMAH        CLOUDY    40  23  50 S18       29.93F WCI  31
COLUMBUS       CLOUDY    45  26  47 SW12      29.92F
ALBION         CLOUDY    46  28  50 SW8       29.89F
OMAHA EPPLEY   CLOUDY    36  21  54 S14       29.97F WCI  27
OFFUTT AFB     CLOUDY    32  19  58 S12       29.98F WCI  23
MILLARD        CLOUDY    39  22  51 S10       29.98F WCI  32
LINCOLN        CLOUDY    41  22  46 SW13      29.98F
NEBRASKA CITY  CLOUDY    33  21  62 S16       30.01F WCI  23
BEATRICE       CLOUDY    35  22  60 S13       30.01F WCI  26
FALLS CITY     SUNNY     37  19  48 S13       30.06F WCI  29

...NORTHERN KANSAS...

CITY           SKY/WX    TMP DP  RH WIND       PRES   REMARKS
GOODLAND       CLOUDY    62  10  13 W8        29.99F
HILL CITY        N/A    N/A N/A N/A MISG      29.98F
NORTON         CLEAR     57  18  21 SW8       29.96F
PHILLIPSBURG   SUNNY     55  25  30 S6        29.97F
SMITH CENTER     N/A     50  19  29 S12       29.99F
BELOIT         SUNNY     46  18  31 S10       30.02F
HAYS           CLOUDY    57  20  23 SW13      30.01F
RUSSELL        CLOUDY    56  24  29 SW16      30.00F
CONCORDIA      CLOUDY    43  23  45 S10       30.01F
SALINA         CLOUDY    44  24  45 S14       30.06F
TOPEKA         SUNNY     39  22  50 S10       30.12F WCI  32



USA.gov is the U.S. government's official web portal to all federal, state and local government web resources and services.